SL-14 DEB, 45313

Orbit data source: Space-Track

SL-14 DEB, 45313 is space debris in LEO originally from a launch on Thu, 15 Aug 1991 UTC launched from the Plesetsk Missile And Space Complex (PKMTR). Debris objects in space refer to the collection of defunct objects orbiting the Earth. Examples of debris include non-operational satellites, rocket bodies, and fragments generated from explosions, collisions, or faulty payload assembly.

Loading next visibility...
Identifier
45313, 1991-056BB
Orbit
LEO
Country
Flag of CISCIS
Related business
Manufacturer
Unknown
Mission
Spacecraft
Bus & Motor
Unknown
Mass
Unknown
Launch date (UTC)
1991-08-15 (35 years ago)
Launch vehicle
Unknown
Launch site
Plesetsk Missile And Space Complex (PKMTR)
Object type
Payload
Rocket body
Debris
Shape & HBR
Unknown shape, 0.1 m
Radar Cross Section
Small (<0.1 m²)

Expand to show TLE details & history
Last TLE update: 13 hours ago

TLE from 13 hours ago
0 SL-14 DEB
1 45313U 91056BB  26249.32430911  .00000906  00000-0  14898-2 0  9990
2 45313  82.5782  15.2677 0091862 309.8997  49.4091 13.44659573319499
Epoch: 2026-09-06T07:47Z
TLE epoch observation values (Epoch: 2026-09-06T07:47:00.307Z)
Latitude
0.00003°
Longitude
-86.90464°
Altitude
1,050.529 km
Speed
7.348 km/s
True Right ascension
01h 01m 04s
True Declination
0° 00' 00"
Sunlit
Object was in full shadow at epoch
Visualization orbit readout
Latitude
Unknown
Longitude
Unknown
Altitude
Unknown
Speed
Unknown
Apparent Right ascension
Unknown
Apparent Declination
Unknown
Sunlit
N/A
Visualization observer readout
Local Sidereal Time
12:36:22
Azimuth
Unknown
Elevation
Unknown
Doppler factor
Unknown
Orbital elements
Apogee altitude
1,157.773 km
Perigee altitude
1,020.581 km
Semi-major axis
7,467.314 km
Eccentricity
0.00919
Inclination
82.5782°
RAAN
15.2677°
Arg. of periapsis
309.8997°
True anomaly
50.21445°
Mean anomaly
49.4091°
Eccentric anomaly
49.81118°
Mean motion
3.36354 °/min
Orbital period
107.03 mins
BSTAR
0.0014898
Loading maneuver chart data...
Computing Atmospheric mass density...
Loading historical data...
Loading historical data...
Loading historical data...
Loading historical data...
Loading historical data...
Loading historical data...
Loading historical data...

Documentation

Showing up to 5 results
|